When you browse on this site, cookies collect data to enhance your experience and personalize the content and advertising you see.
Visit our Privacy Policy to learn more. By continuing to use the site, you agree to this use of cookies and data.
  • în România
  • Lista ţărilor
  • Pe 7 zile
  • Temperatura apei
  • Hartă satelitară
  • Meteo pe hartă
  • Widget-uri
  • user-avatar
    Intrare

    Meteo pe oră la Kuzovkovo

    Astăzi, 19 Aprilie, Vineri

    Timp Temperatura Precipitaţii Vânt Presiune Umiditate
    00:00 +3°C° 0 mm 1 m/s 753 mmHg 90%
    01:00 +3°C° 0 mm 1 m/s 753 mmHg 91%
    02:00 +2°C° 0 mm 1 m/s 754 mmHg 92%
    03:00 +2°C° 0 mm 1 m/s 754 mmHg 92%
    04:00 +1°C° 0 mm 1 m/s 754 mmHg 91%
    05:00 +1°C° 0 mm 1 m/s 754 mmHg 91%
    06:00 +3°C° 0 mm 1 m/s 754 mmHg 81%
    07:00 +5°C° 0 mm 1 m/s 754 mmHg 70%
    08:00 +7°C° 0 mm 1 m/s 754 mmHg 59%
    09:00 +9°C° 0 mm 1 m/s 754 mmHg 54%
    10:00 +10°C° 0 mm 1 m/s 754 mmHg 48%
    11:00 +11°C° 0 mm 1 m/s 754 mmHg 42%
    12:00 +12°C° 0 mm 1 m/s 754 mmHg 40%
    13:00 +13°C° 0 mm 1 m/s 753 mmHg 38%
    14:00 +13°C° 0 mm 1 m/s 753 mmHg 36%
    15:00 +13°C° 0 mm 1 m/s 752 mmHg 37%
    16:00 +13°C° 0 mm 1 m/s 752 mmHg 38%
    17:00 +12°C° 0 mm 1 m/s 751 mmHg 39%
    18:00 +11°C° 0 mm 1 m/s 751 mmHg 44%
    19:00 +9°C° 0 mm 1 m/s 751 mmHg 50%
    20:00 +8°C° 0 mm 1 m/s 751 mmHg 56%
    21:00 +8°C° 0 mm 1 m/s 750 mmHg 58%
    22:00 +7°C° 0 mm 1 m/s 750 mmHg 60%
    23:00 +6°C° 0 mm 2 m/s 750 mmHg 62%

    Mâine, 20 Aprilie, Sâmbătă

    Timp Temperatura Precipitaţii Vânt Presiune Umiditate
    00:00 +6°C° 0.4 mm 2 m/s 749 mmHg 68%
    01:00 +6°C° 0.4 mm 2 m/s 749 mmHg 73%
    02:00 +6°C° 0.4 mm 2 m/s 749 mmHg 78%
    03:00 +5°C° 0.3 mm 2 m/s 749 mmHg 83%
    04:00 +5°C° 0.3 mm 2 m/s 748 mmHg 87%
    05:00 +5°C° 0.3 mm 2 m/s 748 mmHg 91%
    06:00 +5°C° 0.2 mm 2 m/s 748 mmHg 87%
    07:00 +6°C° 0.2 mm 2 m/s 748 mmHg 83%
    08:00 +7°C° 0.2 mm 3 m/s 748 mmHg 79%
    09:00 +8°C° 0.1 mm 3 m/s 748 mmHg 71%
    10:00 +9°C° 0.1 mm 2 m/s 748 mmHg 64%
    11:00 +10°C° 0.1 mm 2 m/s 748 mmHg 56%
    12:00 +10°C° 0.1 mm 2 m/s 748 mmHg 54%
    13:00 +10°C° 0.1 mm 2 m/s 748 mmHg 53%
    14:00 +10°C° 0.1 mm 2 m/s 748 mmHg 51%
    15:00 +10°C° 0.1 mm 2 m/s 748 mmHg 53%
    16:00 +9°C° 0.1 mm 2 m/s 748 mmHg 54%
    17:00 +9°C° 0.1 mm 2 m/s 748 mmHg 56%
    18:00 +8°C° 0 mm 2 m/s 748 mmHg 64%
    19:00 +6°C° 0 mm 2 m/s 749 mmHg 71%
    20:00 +5°C° 0 mm 2 m/s 749 mmHg 79%
    21:00 +4°C° 0 mm 2 m/s 749 mmHg 82%
    22:00 +3°C° 0 mm 2 m/s 749 mmHg 86%
    23:00 +3°C° 0 mm 2 m/s 750 mmHg 89%

    Poimâine, 21 Aprilie, Duminică

    Timp Temperatura Precipitaţii Vânt Presiune Umiditate
    00:00 +3°C° 0 mm 1 m/s 750 mmHg 91%
    01:00 +3°C° 0 mm 1 m/s 750 mmHg 93%
    02:00 +3°C° 0 mm 1 m/s 750 mmHg 96%
    03:00 +3°C° 0 mm 1 m/s 750 mmHg 96%
    04:00 +3°C° 0 mm 1 m/s 750 mmHg 96%
    05:00 +2°C° 0 mm 1 m/s 751 mmHg 96%
    06:00 +4°C° 0 mm 1 m/s 751 mmHg 88%
    07:00 +5°C° 0 mm 2 m/s 751 mmHg 81%
    08:00 +7°C° 0 mm 2 m/s 752 mmHg 73%
    09:00 +8°C° 0 mm 2 m/s 752 mmHg 66%
    10:00 +10°C° 0 mm 2 m/s 751 mmHg 60%
    11:00 +12°C° 0 mm 2 m/s 751 mmHg 53%
    12:00 +13°C° 0 mm 2 m/s 751 mmHg 52%
    13:00 +13°C° 0 mm 2 m/s 751 mmHg 51%
    14:00 +14°C° 0 mm 1 m/s 751 mmHg 50%
    15:00 +14°C° 0 mm 1 m/s 751 mmHg 51%
    16:00 +14°C° 0 mm 1 m/s 751 mmHg 52%
    17:00 +13°C° 0 mm 1 m/s 751 mmHg 54%
    18:00 +11°C° 0 mm 0 m/s 751 mmHg 61%
    19:00 +9°C° 0 mm 0 m/s 751 mmHg 68%
    20:00 +7°C° 0 mm 0 m/s 751 mmHg 76%
    21:00 +7°C° 0 mm 0 m/s 751 mmHg 78%
    22:00 +6°C° 0 mm 0 m/s 752 mmHg 81%
    23:00 +6°C° 0 mm 0 m/s 752 mmHg 83%

    22 Aprilie, Luni

    Timp Temperatura Precipitaţii Vânt Presiune Umiditate
    00:00 +5°C° 0 mm 0 m/s 752 mmHg 85%
    01:00 +5°C° 0 mm 0 m/s 752 mmHg 86%
    02:00 +5°C° 0 mm 0 m/s 752 mmHg 88%
    03:00 +4°C° 0 mm 0 m/s 752 mmHg 88%
    04:00 +5°C° 0 mm 1 m/s 752 mmHg 88%
    05:00 +5°C° 0 mm 1 m/s 752 mmHg 89%
    06:00 +7°C° 0 mm 1 m/s 753 mmHg 80%
    07:00 +10°C° 0 mm 1 m/s 753 mmHg 71%
    08:00 +12°C° 0 mm 1 m/s 753 mmHg 63%
    09:00 +13°C° 0 mm 1 m/s 753 mmHg 55%
    10:00 +15°C° 0 mm 1 m/s 753 mmHg 47%
    11:00 +16°C° 0 mm 1 m/s 753 mmHg 40%
    12:00 +16°C° 0 mm 1 m/s 753 mmHg 38%
    13:00 +17°C° 0 mm 2 m/s 752 mmHg 36%
    14:00 +17°C° 0 mm 2 m/s 752 mmHg 35%
    15:00 +17°C° 0 mm 2 m/s 752 mmHg 37%
    16:00 +17°C° 0 mm 2 m/s 752 mmHg 40%
    17:00 +16°C° 0 mm 1 m/s 751 mmHg 42%
    18:00 +14°C° 0 mm 1 m/s 752 mmHg 48%
    19:00 +12°C° 0 mm 1 m/s 752 mmHg 55%
    20:00 +11°C° 0 mm 1 m/s 752 mmHg 61%
    21:00 +10°C° 0 mm 1 m/s 752 mmHg 63%
    22:00 +9°C° 0 mm 1 m/s 752 mmHg 65%
    23:00 +9°C° 0 mm 1 m/s 752 mmHg 66%

    23 Aprilie, Marţi

    Timp Temperatura Precipitaţii Vânt Presiune Umiditate
    00:00 +8°C° 0 mm 1 m/s 753 mmHg 67%
    01:00 +8°C° 0 mm 1 m/s 753 mmHg 68%
    02:00 +8°C° 0 mm 1 m/s 753 mmHg 68%
    03:00 +7°C° 0 mm 1 m/s 753 mmHg 70%
    04:00 +6°C° 0 mm 2 m/s 753 mmHg 72%
    05:00 +6°C° 0 mm 2 m/s 753 mmHg 74%
    06:00 +8°C° 0 mm 2 m/s 754 mmHg 69%
    07:00 +10°C° 0 mm 2 m/s 754 mmHg 64%
    08:00 +13°C° 0 mm 2 m/s 754 mmHg 58%
    09:00 +15°C° 0 mm 2 m/s 754 mmHg 52%
    10:00 +16°C° 0 mm 3 m/s 754 mmHg 46%
    11:00 +18°C° 0 mm 3 m/s 754 mmHg 40%
    12:00 +18°C° 0 mm 3 m/s 754 mmHg 39%
    13:00 +18°C° 0 mm 3 m/s 753 mmHg 37%
    14:00 +19°C° 0 mm 3 m/s 753 mmHg 36%
    15:00 +18°C° 0 mm 3 m/s 753 mmHg 38%
    16:00 +18°C° 0 mm 2 m/s 753 mmHg 40%
    17:00 +18°C° 0 mm 2 m/s 753 mmHg 42%
    18:00 +16°C° 0 mm 2 m/s 753 mmHg 48%
    19:00 +14°C° 0 mm 1 m/s 753 mmHg 53%
    20:00 +12°C° 0 mm 1 m/s 753 mmHg 59%
    21:00 +11°C° 0 mm 1 m/s 753 mmHg 61%
    22:00 +10°C° 0 mm 1 m/s 753 mmHg 63%
    23:00 +10°C° 0 mm 1 m/s 753 mmHg 65%

    24 Aprilie, Miercuri

    Timp Temperatura Precipitaţii Vânt Presiune Umiditate
    00:00 +9°C° 0 mm 1 m/s 754 mmHg 66%
    01:00 +9°C° 0 mm 1 m/s 754 mmHg 67%
    02:00 +9°C° 0 mm 1 m/s 754 mmHg 68%
    03:00 +8°C° 0 mm 1 m/s 754 mmHg 68%
    04:00 +8°C° 0 mm 1 m/s 755 mmHg 69%
    05:00 +8°C° 0 mm 1 m/s 755 mmHg 70%
    06:00 +11°C° 0 mm 1 m/s 755 mmHg 63%
    07:00 +13°C° 0 mm 1 m/s 755 mmHg 56%
    08:00 +15°C° 0 mm 1 m/s 755 mmHg 49%
    09:00 +18°C° 0 mm 1 m/s 755 mmHg 44%
    10:00 +19°C° 0 mm 1 m/s 755 mmHg 39%
    11:00 +20°C° 0 mm 1 m/s 755 mmHg 35%
    12:00 +21°C° 0 mm 1 m/s 755 mmHg 34%
    13:00 +21°C° 0 mm 1 m/s 754 mmHg 33%
    14:00 +22°C° 0 mm 1 m/s 754 mmHg 32%
    15:00 +21°C° 0 mm 1 m/s 754 mmHg 33%
    16:00 +19°C° 0 mm 0 m/s 754 mmHg 34%
    17:00 +18°C° 0 mm 0 m/s 754 mmHg 36%
    18:00 +16°C° 0 mm 0 m/s 753 mmHg 41%
    19:00 +14°C° 0 mm 0 m/s 753 mmHg 46%
    20:00 +12°C° 0 mm 0 m/s 753 mmHg 51%
    21:00 +12°C° 0 mm 0 m/s 754 mmHg 54%
    22:00 +12°C° 0 mm 1 m/s 754 mmHg 56%
    23:00 +12°C° 0 mm 1 m/s 754 mmHg 58%
    Arată mai mult